Lawton, OK

10:25 PM CST on November 21, 2017 (GMT -0600)
Lawton-Fort Sill Regional

Weather History for KLAW - June, 2013

Change the Weather History Date:

Thursday, June 20, 2013

  Actual Average Record
Temperature  
Mean Temperature 85 °F -  
Max Temperature 98 °F 92 °F 104 °F (1998)
Min Temperature 73 °F 69 °F 54 °F (1976)
Cooling Degree Days 20    
Growing Degree Days 35 (Base 50)    
Moisture  
Dew Point 68 °F    
Average Humidity 60    
Maximum Humidity 85    
Minimum Humidity 37    
Precipitation  
Precipitation 0.00 in - - ()
Sea Level Pressure  
Sea Level Pressure 29.90 in    
Wind  
Wind Speed 13 mph (SSE)    
Max Wind Speed 21 mph    
Max Gust Speed 31 mph    
Visibility 10 miles    
Events      
Averages and records for this station are not official NWS values.
T = Trace of Precipitation, MM = Missing Value Source: NWS Daily Summary

Daily Weather History Graph

Daily Weather History Graph

Search for Another Location

Airport or City:

Trip Planner

Search our weather history database for the weather conditions in past years. The results will help you decide how hot, cold, wet, or windy it might be!

Date:

Astronomy

Jun. 20, 2013 Rise Set
Actual Time 6:21 AM CDT 8:49 PM CDT
Civil Twilight 5:51 AM CDT 9:19 PM CDT
Nautical Twilight 5:15 AM CDT 9:55 PM CDT
Astronomical Twilight 4:35 AM CDT 10:35 PM CDT
Moon 5:57 PM CDT (6/20) 3:43 AM CDT (6/20)
Length of Visible Light 15h 27m
Length of Day
14h 28m
Waxing Gibbous, 89% of the Moon is Illuminated
Jun 20
Waxing Gibbous
Jun 23
Full
Jun 29
Last Quarter
Jul 8
New
Jul 15
First Quarter

Hourly Weather History & Observations

Time (CDT) Temp. Heat Index Dew Point Humidity Pressure Visibility Wind Dir Wind Speed Gust Speed Precip Events Conditions
12:53 AM 75.9 °F - 71.1 °F 85% 29.89 in 10.0 mi SE 11.5 mph - N/A   Clear
1:53 AM 75.9 °F - 69.1 °F 79% 29.87 in 10.0 mi SE 11.5 mph - N/A   Clear
2:53 AM 75.0 °F - 69.1 °F 82% 29.86 in 10.0 mi SE 9.2 mph 20.7 mph N/A   Clear
3:53 AM 73.9 °F - 68.0 °F 82% 29.87 in 10.0 mi SE 10.4 mph - N/A   Clear
4:53 AM 73.9 °F - 66.9 °F 79% 29.88 in 10.0 mi SE 9.2 mph - N/A   Clear
5:53 AM 73.0 °F - 66.9 °F 81% 29.90 in 10.0 mi SSE 8.1 mph - N/A   Clear
6:53 AM 73.0 °F - 68.0 °F 84% 29.91 in 10.0 mi SSE 10.4 mph - N/A   Clear
7:53 AM 75.0 °F - 68.0 °F 79% 29.94 in 10.0 mi SSE 13.8 mph - N/A   Clear
8:53 AM 80.1 °F 82.7 °F 68.0 °F 67% 29.94 in 10.0 mi South 16.1 mph 21.9 mph N/A   Clear
9:53 AM 84.9 °F 88.8 °F 69.1 °F 59% 29.94 in 10.0 mi South 17.3 mph 21.9 mph N/A   Clear
10:53 AM 88.0 °F 92.1 °F 69.1 °F 53% 29.93 in 10.0 mi South 17.3 mph 23.0 mph N/A   Clear
11:53 AM 93.0 °F 97.9 °F 69.1 °F 45% 29.94 in 10.0 mi South 12.7 mph 24.2 mph N/A   Clear
12:53 PM 93.9 °F 97.5 °F 66.9 °F 41% 29.92 in 10.0 mi South 16.1 mph 28.8 mph N/A   Clear
1:53 PM 93.9 °F 97.5 °F 66.9 °F 41% 29.91 in 10.0 mi South 17.3 mph 27.6 mph N/A   Clear
2:53 PM 97.0 °F 102.2 °F 68.0 °F 39% 29.90 in 10.0 mi South 20.7 mph 27.6 mph N/A   Clear
3:53 PM 97.0 °F 102.2 °F 68.0 °F 39% 29.88 in 10.0 mi South 19.6 mph 31.1 mph N/A   Partly Cloudy
4:53 PM 96.1 °F 99.3 °F 66.0 °F 37% 29.87 in 10.0 mi SSE 15.0 mph 31.1 mph N/A   Clear
5:53 PM 95.0 °F 99.0 °F 66.9 °F 40% 29.85 in 10.0 mi SSE 19.6 mph 28.8 mph N/A   Clear
6:53 PM 91.9 °F 95.4 °F 66.9 °F 44% 29.84 in 10.0 mi SE 20.7 mph 27.6 mph N/A   Clear
7:53 PM 90.0 °F 93.6 °F 68.0 °F 48% 29.86 in 10.0 mi SSE 18.4 mph 26.5 mph N/A   Clear
8:53 PM 87.1 °F 89.9 °F 66.9 °F 51% 29.88 in 10.0 mi SSE 13.8 mph - N/A   Clear
9:53 PM 84.9 °F 88.2 °F 68.0 °F 57% 29.90 in 10.0 mi SSE 11.5 mph - N/A   Clear
10:53 PM 84.0 °F 86.5 °F 66.9 °F 56% 29.91 in 10.0 mi SSE 13.8 mph - N/A   Clear
11:53 PM 82.0 °F 84.5 °F 66.9 °F 60% 29.93 in 10.0 mi SSE 10.4 mph - N/A   Clear